GEFSCGP_prec_meanprecacc_240.txt.gz
Total_Precipitation_Accumulation
0.01 0.02 0.03 0.03 0.03 0.04 0.07 0.16 0.22 0.23 0.29 0.32 0.40 0.49 0.81 1.03 1.12 1.25 1.42 1.62 1.82 2.01 2.07 2.23 2.53 2.76 2.91 3.06 3.30 3.59 4.02 4.36 4.46 4.29 4.22 4.13 3.81 3.50 3.15 2.88 2.81 2.94 2.84 2.91
0.02 0.03 0.03 0.03 0.03 0.06 0.09 0.17 0.25 0.28 0.32 0.32 0.46 0.57 0.82 1.23 1.35 1.31 1.36 1.39 1.48 1.93 2.14 2.32 2.57 2.71 2.71 2.90 3.19 3.60 4.06 4.37 4.28 4.38 4.58 4.51 4.26 3.57 3.20 3.03 2.95 2.86 2.79 2.80
0.03 0.03 0.02 0.03 0.05 0.08 0.10 0.15 0.22 0.28 0.38 0.35 0.46 0.85 1.05 1.34 1.47 1.33 1.29 1.31 1.28 1.48 1.79 1.93 2.09 2.28 2.52 2.93 3.34 3.62 3.94 4.10 4.13 4.33 4.44 4.15 3.93 3.43 3.30 3.30 3.13 2.96 2.94 2.95
0.03 0.03 0.03 0.05 0.06 0.08 0.12 0.11 0.14 0.22 0.36 0.50 0.58 1.19 1.48 1.67 1.54 1.26 1.29 1.34 1.45 1.56 1.65 1.77 1.83 2.12 2.49 2.88 3.45 3.85 3.89 3.97 3.86 3.97 4.07 3.89 3.54 3.29 3.19 3.19 2.96 2.83 2.76 2.76
0.06 0.04 0.04 0.05 0.06 0.07 0.09 0.08 0.11 0.18 0.28 0.47 0.64 1.05 1.53 1.61 1.48 1.21 1.12 1.31 1.53 1.52 1.57 1.81 1.77 1.94 2.20 2.61 3.01 3.41 3.76 3.84 3.66 3.58 3.62 3.74 3.58 3.31 3.09 2.97 2.88 2.81 2.79 2.59
0.09 0.07 0.06 0.05 0.06 0.06 0.07 0.09 0.16 0.27 0.44 0.79 0.64 0.78 1.22 1.48 1.36 1.10 1.12 1.24 1.40 1.57 1.58 1.73 1.99 2.03 2.13 2.41 2.76 3.04 3.28 3.28 3.20 3.15 3.19 3.29 3.35 3.32 3.07 2.86 2.86 2.83 2.69 2.52
0.17 0.17 0.12 0.09 0.08 0.07 0.09 0.18 0.53 0.87 1.17 1.03 0.68 0.79 1.16 1.13 0.96 0.86 0.93 1.17 1.43 1.71 1.72 1.76 1.93 2.01 2.08 2.22 2.39 2.53 2.63 2.67 2.64 2.67 2.65 2.64 2.76 2.83 2.68 2.60 2.66 2.64 2.53 2.42
0.25 0.24 0.18 0.15 0.13 0.11 0.11 0.22 0.60 0.80 0.95 0.91 0.85 1.07 1.15 0.92 0.79 0.79 0.86 1.04 1.31 1.48 1.51 1.60 1.69 1.60 1.62 1.72 1.85 2.00 2.11 2.12 2.08 2.16 2.24 2.25 2.44 2.43 2.40 2.53 2.45 2.46 2.39 2.36
0.14 0.16 0.15 0.15 0.16 0.15 0.20 0.26 0.28 0.46 0.58 0.93 1.13 1.26 1.16 0.84 0.96 0.95 1.02 1.08 1.13 1.17 1.20 1.20 1.22 1.28 1.41 1.47 1.51 1.58 1.77 1.79 1.72 1.78 1.93 2.00 2.05 2.15 2.24 2.30 2.21 2.10 2.13 2.01
0.08 0.11 0.14 0.12 0.12 0.15 0.22 0.34 0.47 0.69 0.91 1.08 1.18 1.46 1.64 1.45 1.36 1.23 1.34 1.55 1.31 1.05 1.06 1.08 1.06 1.10 1.15 1.19 1.29 1.44 1.59 1.73 1.74 1.69 1.72 1.67 1.75 1.84 2.02 2.08 1.99 1.99 2.06 2.01
0.08 0.11 0.14 0.16 0.16 0.21 0.33 0.41 0.51 0.66 0.76 1.03 1.31 1.50 1.31 1.46 1.42 1.35 1.33 1.37 1.26 0.93 0.81 0.89 0.88 0.92 0.97 1.02 1.13 1.28 1.57 1.73 1.67 1.51 1.52 1.57 1.55 1.64 1.78 1.83 1.79 1.87 1.95 2.04
0.10 0.12 0.16 0.20 0.20 0.19 0.28 0.42 0.52 0.69 0.78 0.87 1.10 1.34 0.96 1.08 1.04 0.99 1.04 0.94 0.85 0.78 0.64 0.75 0.80 0.78 0.82 0.86 0.94 1.10 1.31 1.47 1.48 1.43 1.44 1.54 1.63 1.63 1.59 1.59 1.60 1.64 1.67 1.70
0.13 0.17 0.28 0.47 0.45 0.29 0.26 0.29 0.36 0.45 0.59 0.67 0.98 1.27 0.88 0.80 0.86 0.86 0.83 0.84 0.70 0.76 0.71 0.70 0.79 0.79 0.74 0.73 0.85 1.04 1.09 1.28 1.45 1.46 1.43 1.52 1.51 1.47 1.52 1.64 1.68 1.64 1.64 1.62
0.14 0.15 0.24 0.49 0.57 0.44 0.34 0.34 0.35 0.38 0.52 0.56 0.65 0.97 0.97 0.91 0.89 0.94 0.84 0.70 0.62 0.67 0.76 0.72 0.72 0.71 0.62 0.60 0.70 0.89 0.97 1.10 1.25 1.40 1.49 1.59 1.60 1.60 1.69 1.75 1.79 1.74 1.67 1.68
0.13 0.14 0.16 0.23 0.31 0.33 0.31 0.30 0.33 0.35 0.39 0.51 0.58 0.75 0.90 0.90 0.91 1.00 0.87 0.72 0.71 0.62 0.65 0.69 0.64 0.55 0.54 0.55 0.61 0.78 0.90 1.01 1.12 1.36 1.54 1.61 1.63 1.65 1.67 1.65 1.71 1.72 1.64 1.61
0.18 0.19 0.21 0.29 0.33 0.35 0.35 0.34 0.30 0.28 0.26 0.30 0.49 0.71 0.71 0.70 0.75 0.86 0.84 0.88 0.87 0.76 0.59 0.56 0.59 0.59 0.60 0.52 0.52 0.58 0.73 0.88 1.02 1.21 1.36 1.41 1.50 1.60 1.57 1.51 1.56 1.58 1.63 1.67
0.24 0.28 0.33 0.39 0.44 0.51 0.55 0.43 0.41 0.40 0.35 0.38 0.61 0.74 0.60 0.60 0.65 0.68 0.68 0.74 0.79 0.76 0.82 0.78 0.70 0.71 0.64 0.54 0.55 0.55 0.59 0.75 0.96 1.11 1.19 1.28 1.41 1.49 1.50 1.43 1.50 1.60 1.64 1.62
0.29 0.36 0.39 0.42 0.59 0.83 0.63 0.39 0.34 0.34 0.36 0.36 0.46 0.53 0.51 0.54 0.54 0.59 0.65 0.62 0.61 0.54 0.60 0.75 0.80 0.82 0.80 0.71 0.70 0.69 0.67 0.75 0.91 1.08 1.20 1.29 1.43 1.46 1.49 1.48 1.44 1.49 1.50 1.51
0.27 0.41 0.48 0.53 0.65 0.68 0.57 0.45 0.43 0.45 0.47 0.34 0.39 0.45 0.44 0.51 0.58 0.67 0.56 0.48 0.58 0.53 0.59 0.66 0.70 0.80 0.96 0.99 0.91 0.89 0.91 0.89 0.95 1.09 1.24 1.37 1.51 1.56 1.56 1.56 1.52 1.53 1.53 1.49
0.30 0.39 0.52 0.55 0.79 0.87 0.69 0.51 0.52 0.60 0.87 0.56 0.50 0.55 0.55 0.54 0.80 0.89 0.56 0.49 0.69 0.60 0.58 0.64 0.67 0.70 0.85 0.91 0.86 0.87 0.95 1.05 1.09 1.17 1.29 1.42 1.51 1.63 1.61 1.67 1.70 1.66 1.58 1.51
0.58 0.60 0.61 0.61 0.82 0.93 0.65 0.50 0.58 1.02 1.18 0.69 0.61 0.64 0.69 0.72 0.74 0.69 0.53 0.57 0.66 0.59 0.57 0.55 0.61 0.78 0.86 0.86 0.88 0.98 1.03 1.12 1.17 1.29 1.37 1.49 1.57 1.62 1.62 1.69 1.75 1.72 1.66 1.67
0.82 0.81 0.77 0.82 1.06 1.14 0.67 0.60 0.87 1.00 0.72 0.64 0.63 0.59 0.63 0.65 0.60 0.50 0.47 0.50 0.54 0.58 0.60 0.67 0.78 0.88 0.90 0.94 1.07 1.19 1.26 1.23 1.33 1.41 1.43 1.52 1.63 1.49 1.48 1.72 1.80 1.80 1.82 1.81
0.89 0.91 0.95 1.02 1.12 0.97 0.84 0.87 0.93 0.79 0.77 0.67 0.58 0.58 0.55 0.60 0.59 0.52 0.51 0.48 0.50 0.56 0.59 0.69 0.84 0.92 0.95 1.00 1.15 1.38 1.40 1.34 1.37 1.47 1.52 1.55 1.59 1.69 1.78 1.83 1.87 1.84 1.79 1.78
0.94 0.82 0.99 1.13 1.11 1.00 0.96 0.94 0.91 0.81 0.75 0.65 0.57 0.58 0.58 0.64 0.70 0.62 0.59 0.61 0.56 0.58 0.61 0.67 0.84 0.91 1.03 1.13 1.27 1.53 1.58 1.53 1.55 1.61 1.68 1.69 1.68 1.73 1.88 2.04 2.02 1.94 1.79 1.80
1.03 1.00 1.16 1.34 1.27 1.10 0.97 0.83 0.76 0.69 0.63 0.59 0.57 0.59 0.62 0.68 0.73 0.69 0.73 0.75 0.68 0.66 0.67 0.75 0.93 1.08 1.13 1.18 1.25 1.42 1.58 1.72 1.79 1.81 1.80 1.81 1.85 1.88 1.95 1.94 1.89 1.86 1.79 1.70
0.95 1.11 1.39 1.54 1.24 1.09 1.01 0.82 0.79 0.69 0.63 0.62 0.62 0.61 0.68 0.67 0.68 0.68 0.71 0.78 0.75 0.79 0.88 0.89 0.94 1.08 1.17 1.22 1.31 1.43 1.64 1.92 2.13 2.12 2.02 1.99 1.97 1.98 1.95 1.96 1.79 1.61 1.52 1.45

GEFSCGP_prec_meanprecacc_246.txt.gz
Total_Precipitation_Accumulation
0.01 0.02 0.03 0.03 0.04 0.06 0.09 0.18 0.24 0.25 0.30 0.34 0.43 0.51 0.82 1.05 1.15 1.28 1.44 1.69 1.87 2.03 2.09 2.25 2.54 2.77 2.93 3.09 3.32 3.63 4.05 4.38 4.48 4.31 4.23 4.17 3.86 3.54 3.18 2.90 2.86 2.98 2.89 2.96
0.02 0.03 0.03 0.04 0.04 0.07 0.11 0.19 0.26 0.30 0.33 0.32 0.47 0.59 0.84 1.28 1.43 1.38 1.41 1.44 1.50 1.95 2.15 2.34 2.59 2.72 2.72 2.91 3.21 3.63 4.08 4.39 4.29 4.39 4.60 4.55 4.31 3.62 3.25 3.07 3.02 2.96 2.87 2.85
0.03 0.04 0.03 0.04 0.06 0.09 0.13 0.17 0.24 0.29 0.39 0.37 0.49 0.88 1.08 1.37 1.52 1.40 1.36 1.37 1.32 1.51 1.81 1.95 2.11 2.30 2.53 2.94 3.35 3.62 3.95 4.12 4.15 4.35 4.48 4.18 3.98 3.49 3.36 3.35 3.19 3.03 3.00 2.99
0.03 0.03 0.03 0.06 0.08 0.09 0.13 0.12 0.15 0.24 0.39 0.55 0.62 1.23 1.52 1.70 1.58 1.32 1.35 1.40 1.49 1.60 1.68 1.81 1.85 2.14 2.50 2.89 3.46 3.86 3.91 3.99 3.88 3.99 4.09 3.92 3.58 3.33 3.24 3.23 3.00 2.89 2.81 2.81
0.06 0.04 0.04 0.05 0.07 0.08 0.10 0.10 0.12 0.21 0.33 0.54 0.69 1.08 1.56 1.64 1.53 1.25 1.15 1.35 1.58 1.56 1.61 1.84 1.78 1.95 2.21 2.62 3.02 3.42 3.77 3.85 3.66 3.59 3.63 3.77 3.61 3.34 3.12 3.02 2.92 2.85 2.82 2.65
0.09 0.07 0.06 0.06 0.07 0.07 0.08 0.10 0.18 0.30 0.51 0.88 0.69 0.82 1.25 1.50 1.39 1.14 1.15 1.29 1.45 1.60 1.60 1.76 2.01 2.05 2.15 2.43 2.77 3.05 3.29 3.29 3.21 3.16 3.20 3.31 3.37 3.34 3.10 2.89 2.90 2.86 2.72 2.56
0.17 0.17 0.12 0.09 0.09 0.08 0.09 0.19 0.55 0.90 1.21 1.09 0.72 0.81 1.18 1.14 0.99 0.90 0.96 1.22 1.48 1.74 1.74 1.78 1.95 2.03 2.10 2.23 2.40 2.54 2.64 2.68 2.65 2.68 2.66 2.66 2.77 2.84 2.71 2.64 2.70 2.70 2.58 2.46
0.25 0.24 0.18 0.15 0.13 0.11 0.12 0.22 0.60 0.82 0.98 0.94 0.87 1.09 1.17 0.93 0.81 0.81 0.89 1.07 1.35 1.51 1.53 1.62 1.70 1.62 1.63 1.73 1.86 2.01 2.12 2.14 2.09 2.17 2.25 2.26 2.45 2.45 2.43 2.56 2.48 2.51 2.45 2.41
0.14 0.16 0.15 0.15 0.16 0.16 0.20 0.26 0.28 0.47 0.60 0.97 1.17 1.29 1.18 0.87 0.99 0.98 1.06 1.11 1.16 1.20 1.22 1.21 1.24 1.30 1.43 1.49 1.52 1.60 1.78 1.80 1.74 1.79 1.95 2.01 2.06 2.17 2.26 2.33 2.24 2.15 2.18 2.08
0.08 0.12 0.14 0.12 0.12 0.15 0.22 0.34 0.47 0.70 0.94 1.11 1.24 1.50 1.69 1.48 1.39 1.26 1.37 1.59 1.34 1.07 1.07 1.10 1.07 1.12 1.16 1.21 1.30 1.46 1.60 1.74 1.75 1.70 1.74 1.69 1.77 1.88 2.06 2.11 2.02 2.04 2.10 2.06
0.08 0.11 0.14 0.16 0.16 0.21 0.33 0.41 0.52 0.66 0.78 1.05 1.38 1.56 1.36 1.50 1.45 1.38 1.36 1.40 1.28 0.94 0.83 0.91 0.89 0.93 0.98 1.04 1.14 1.30 1.59 1.74 1.68 1.52 1.54 1.60 1.58 1.68 1.80 1.85 1.81 1.91 2.00 2.12
0.11 0.12 0.16 0.20 0.20 0.19 0.28 0.42 0.53 0.70 0.78 0.88 1.12 1.36 1.00 1.14 1.10 1.07 1.13 0.98 0.88 0.81 0.66 0.77 0.82 0.79 0.83 0.88 0.96 1.12 1.33 1.49 1.50 1.46 1.47 1.57 1.66 1.66 1.63 1.63 1.65 1.70 1.74 1.78
0.13 0.17 0.28 0.47 0.45 0.29 0.26 0.29 0.36 0.45 0.59 0.68 0.99 1.29 0.91 0.89 0.99 0.96 0.92 0.91 0.75 0.79 0.74 0.72 0.81 0.81 0.76 0.75 0.88 1.06 1.11 1.30 1.48 1.50 1.48 1.57 1.55 1.52 1.57 1.71 1.76 1.73 1.73 1.72
0.14 0.16 0.24 0.49 0.57 0.45 0.35 0.34 0.35 0.38 0.52 0.56 0.66 0.99 1.00 0.99 0.98 1.01 0.92 0.79 0.66 0.70 0.77 0.74 0.74 0.73 0.63 0.62 0.72 0.90 0.99 1.12 1.28 1.44 1.53 1.66 1.66 1.67 1.76 1.85 1.90 1.85 1.79 1.81
0.14 0.14 0.16 0.23 0.31 0.33 0.31 0.31 0.33 0.35 0.40 0.51 0.59 0.76 0.92 0.92 0.93 1.03 0.93 0.79 0.76 0.65 0.66 0.70 0.66 0.57 0.55 0.56 0.63 0.79 0.92 1.02 1.15 1.41 1.60 1.72 1.77 1.77 1.79 1.78 1.84 1.84 1.74 1.68
0.18 0.19 0.21 0.29 0.33 0.36 0.35 0.34 0.30 0.29 0.27 0.31 0.49 0.73 0.73 0.72 0.77 0.89 0.88 0.92 0.90 0.79 0.63 0.58 0.61 0.60 0.61 0.54 0.54 0.60 0.75 0.90 1.04 1.24 1.40 1.50 1.63 1.75 1.73 1.67 1.70 1.69 1.72 1.73
0.25 0.28 0.33 0.40 0.45 0.52 0.55 0.44 0.42 0.40 0.36 0.39 0.62 0.76 0.62 0.63 0.68 0.70 0.71 0.77 0.82 0.80 0.85 0.82 0.75 0.76 0.67 0.55 0.57 0.59 0.63 0.79 1.01 1.14 1.22 1.33 1.48 1.59 1.62 1.55 1.61 1.69 1.70 1.67
0.30 0.36 0.39 0.43 0.60 0.85 0.64 0.41 0.35 0.35 0.39 0.37 0.48 0.55 0.52 0.55 0.56 0.60 0.67 0.64 0.64 0.57 0.62 0.78 0.85 0.86 0.84 0.74 0.74 0.75 0.75 0.86 1.02 1.14 1.25 1.35 1.48 1.52 1.55 1.55 1.52 1.57 1.56 1.56
0.27 0.41 0.48 0.53 0.66 0.70 0.60 0.49 0.48 0.49 0.51 0.37 0.42 0.47 0.49 0.56 0.60 0.69 0.58 0.50 0.60 0.55 0.61 0.69 0.76 0.85 1.00 1.02 0.97 0.98 1.04 1.10 1.09 1.16 1.29 1.43 1.55 1.60 1.60 1.61 1.57 1.58 1.57 1.53
0.30 0.39 0.53 0.56 0.80 0.89 0.71 0.55 0.59 0.66 0.92 0.61 0.54 0.58 0.60 0.60 0.85 0.93 0.60 0.52 0.72 0.62 0.60 0.67 0.71 0.75 0.92 1.00 0.95 0.98 1.06 1.14 1.14 1.21 1.34 1.47 1.55 1.66 1.64 1.71 1.74 1.71 1.62 1.55
0.58 0.61 0.61 0.62 0.83 0.95 0.67 0.52 0.63 1.10 1.26 0.75 0.66 0.67 0.72 0.74 0.77 0.72 0.59 0.62 0.70 0.62 0.58 0.57 0.65 0.86 0.95 0.98 0.98 1.05 1.08 1.16 1.21 1.35 1.43 1.55 1.64 1.69 1.67 1.73 1.78 1.76 1.71 1.73
0.83 0.82 0.77 0.82 1.07 1.17 0.70 0.62 0.89 1.05 0.80 0.72 0.68 0.63 0.68 0.69 0.62 0.52 0.51 0.55 0.58 0.63 0.63 0.72 0.86 0.98 0.98 1.00 1.12 1.23 1.30 1.28 1.41 1.51 1.49 1.58 1.73 1.59 1.58 1.78 1.85 1.85 1.87 1.85
0.90 0.93 0.97 1.03 1.13 0.98 0.87 0.91 0.99 0.83 0.83 0.74 0.65 0.63 0.58 0.62 0.61 0.55 0.53 0.50 0.55 0.68 0.68 0.78 0.92 0.97 0.99 1.03 1.18 1.42 1.45 1.40 1.44 1.54 1.57 1.59 1.67 1.79 1.86 1.90 1.94 1.90 1.84 1.83
0.99 0.87 1.04 1.17 1.14 1.03 1.01 1.00 0.98 0.90 0.87 0.78 0.67 0.68 0.63 0.67 0.73 0.66 0.61 0.62 0.58 0.62 0.68 0.74 0.90 0.95 1.07 1.16 1.31 1.57 1.61 1.57 1.59 1.65 1.72 1.72 1.72 1.77 1.95 2.11 2.10 2.02 1.87 1.87
1.10 1.07 1.22 1.40 1.33 1.15 1.02 0.88 0.83 0.77 0.73 0.71 0.70 0.71 0.72 0.76 0.79 0.74 0.77 0.78 0.71 0.68 0.70 0.79 0.97 1.11 1.17 1.22 1.30 1.46 1.61 1.76 1.83 1.84 1.83 1.85 1.88 1.92 2.00 2.00 1.96 1.94 1.87 1.77
1.06 1.20 1.46 1.60 1.30 1.15 1.07 0.88 0.86 0.76 0.70 0.70 0.69 0.69 0.77 0.76 0.75 0.73 0.76 0.81 0.78 0.83 0.93 0.94 0.98 1.12 1.21 1.26 1.35 1.47 1.68 1.96 2.17 2.14 2.05 2.03 2.02 2.04 2.01 2.01 1.84 1.68 1.60 1.52

GEFSCGP_prec_meanprecacc_252.txt.gz
Total_Precipitation_Accumulation
0.01 0.02 0.03 0.04 0.04 0.06 0.09 0.18 0.24 0.26 0.31 0.35 0.44 0.52 0.83 1.07 1.17 1.30 1.46 1.70 1.88 2.04 2.11 2.27 2.57 2.79 2.94 3.10 3.34 3.65 4.07 4.41 4.53 4.35 4.27 4.20 3.90 3.58 3.21 2.95 2.91 3.02 2.92 3.01
0.03 0.04 0.03 0.04 0.04 0.08 0.11 0.20 0.27 0.31 0.35 0.34 0.49 0.60 0.85 1.30 1.45 1.41 1.46 1.48 1.53 1.97 2.17 2.35 2.60 2.74 2.73 2.93 3.21 3.63 4.09 4.41 4.31 4.42 4.63 4.57 4.34 3.65 3.28 3.11 3.05 2.98 2.90 2.89
0.04 0.04 0.03 0.04 0.06 0.09 0.13 0.17 0.24 0.30 0.40 0.39 0.50 0.90 1.11 1.40 1.55 1.43 1.39 1.40 1.35 1.54 1.84 1.97 2.13 2.31 2.54 2.95 3.36 3.64 3.97 4.14 4.17 4.38 4.52 4.22 4.01 3.52 3.38 3.37 3.20 3.05 3.03 3.01
0.03 0.03 0.03 0.06 0.08 0.09 0.13 0.13 0.16 0.25 0.41 0.57 0.63 1.24 1.54 1.73 1.61 1.35 1.37 1.43 1.52 1.64 1.71 1.83 1.88 2.16 2.51 2.91 3.48 3.88 3.92 4.01 3.89 4.01 4.12 3.95 3.60 3.35 3.25 3.24 3.01 2.90 2.84 2.83
0.06 0.04 0.04 0.05 0.07 0.08 0.11 0.10 0.13 0.22 0.35 0.57 0.71 1.09 1.57 1.67 1.56 1.27 1.18 1.37 1.60 1.58 1.63 1.86 1.80 1.98 2.23 2.63 3.03 3.43 3.78 3.85 3.67 3.61 3.65 3.78 3.62 3.35 3.13 3.03 2.92 2.85 2.83 2.67
0.09 0.07 0.06 0.06 0.07 0.08 0.09 0.11 0.19 0.31 0.52 0.90 0.71 0.83 1.25 1.51 1.41 1.16 1.16 1.29 1.47 1.64 1.62 1.77 2.02 2.06 2.17 2.45 2.79 3.06 3.30 3.29 3.22 3.17 3.21 3.32 3.39 3.35 3.12 2.90 2.92 2.88 2.74 2.59
0.17 0.17 0.12 0.10 0.09 0.08 0.09 0.19 0.56 0.91 1.23 1.10 0.73 0.82 1.18 1.14 1.00 0.91 0.97 1.22 1.50 1.76 1.76 1.79 1.97 2.06 2.14 2.26 2.41 2.55 2.66 2.70 2.66 2.70 2.67 2.67 2.80 2.86 2.73 2.67 2.73 2.74 2.62 2.49
0.25 0.24 0.18 0.15 0.13 0.11 0.12 0.22 0.61 0.83 1.00 0.95 0.88 1.10 1.17 0.93 0.81 0.82 0.90 1.08 1.37 1.53 1.56 1.65 1.74 1.66 1.67 1.74 1.87 2.02 2.13 2.15 2.10 2.18 2.26 2.27 2.47 2.47 2.46 2.59 2.52 2.55 2.48 2.44
0.14 0.16 0.15 0.15 0.16 0.16 0.20 0.26 0.29 0.48 0.60 0.97 1.18 1.29 1.19 0.87 1.00 0.99 1.07 1.12 1.17 1.21 1.24 1.24 1.26 1.33 1.46 1.51 1.54 1.62 1.80 1.82 1.75 1.80 1.96 2.02 2.08 2.19 2.29 2.37 2.29 2.19 2.22 2.11
0.08 0.12 0.14 0.12 0.13 0.15 0.22 0.34 0.47 0.70 0.94 1.11 1.24 1.51 1.69 1.49 1.40 1.27 1.38 1.59 1.35 1.08 1.09 1.11 1.08 1.13 1.19 1.23 1.33 1.49 1.62 1.77 1.77 1.72 1.76 1.70 1.79 1.89 2.08 2.15 2.05 2.07 2.15 2.10
0.08 0.11 0.14 0.16 0.16 0.21 0.33 0.42 0.52 0.67 0.78 1.05 1.38 1.56 1.36 1.51 1.46 1.39 1.37 1.41 1.29 0.96 0.85 0.93 0.91 0.95 1.00 1.05 1.16 1.32 1.61 1.77 1.70 1.54 1.56 1.63 1.60 1.70 1.84 1.89 1.84 1.94 2.04 2.17
0.11 0.12 0.16 0.20 0.20 0.19 0.28 0.42 0.53 0.70 0.78 0.88 1.12 1.37 1.00 1.14 1.11 1.08 1.14 1.00 0.91 0.83 0.69 0.79 0.84 0.82 0.85 0.90 0.99 1.14 1.34 1.51 1.52 1.48 1.50 1.60 1.68 1.69 1.65 1.65 1.68 1.75 1.78 1.84
0.13 0.17 0.28 0.48 0.45 0.30 0.26 0.29 0.36 0.45 0.59 0.68 0.99 1.29 0.92 0.90 1.00 0.97 0.94 0.94 0.77 0.83 0.77 0.75 0.84 0.83 0.78 0.77 0.90 1.08 1.12 1.32 1.50 1.52 1.50 1.59 1.58 1.55 1.60 1.74 1.80 1.78 1.79 1.80
0.14 0.16 0.24 0.50 0.57 0.45 0.35 0.34 0.35 0.38 0.52 0.56 0.66 0.99 1.00 0.99 0.98 1.01 0.93 0.82 0.70 0.73 0.81 0.76 0.76 0.75 0.64 0.63 0.74 0.93 1.02 1.15 1.32 1.47 1.56 1.68 1.69 1.70 1.80 1.89 1.95 1.91 1.84 1.85
0.14 0.14 0.17 0.23 0.31 0.34 0.31 0.31 0.33 0.35 0.40 0.51 0.59 0.76 0.92 0.93 0.94 1.04 0.94 0.81 0.78 0.69 0.70 0.73 0.68 0.59 0.57 0.58 0.64 0.81 0.95 1.07 1.20 1.45 1.63 1.75 1.82 1.81 1.83 1.84 1.91 1.91 1.79 1.74
0.18 0.20 0.22 0.29 0.33 0.36 0.35 0.34 0.30 0.29 0.27 0.32 0.50 0.73 0.74 0.73 0.78 0.90 0.90 0.95 0.94 0.83 0.68 0.63 0.65 0.64 0.63 0.56 0.57 0.63 0.79 0.95 1.10 1.31 1.47 1.56 1.68 1.79 1.77 1.73 1.78 1.77 1.79 1.81
0.25 0.28 0.34 0.41 0.46 0.52 0.55 0.44 0.42 0.40 0.36 0.40 0.63 0.77 0.63 0.64 0.69 0.71 0.72 0.78 0.83 0.82 0.88 0.88 0.80 0.79 0.69 0.58 0.60 0.63 0.69 0.86 1.07 1.22 1.30 1.40 1.53 1.63 1.66 1.61 1.69 1.78 1.80 1.76
0.30 0.36 0.40 0.43 0.61 0.85 0.65 0.41 0.35 0.35 0.39 0.38 0.49 0.56 0.54 0.57 0.56 0.61 0.68 0.65 0.64 0.57 0.63 0.80 0.87 0.89 0.86 0.76 0.77 0.80 0.82 0.93 1.10 1.26 1.35 1.41 1.52 1.56 1.58 1.58 1.56 1.62 1.63 1.61
0.27 0.41 0.49 0.54 0.66 0.70 0.60 0.49 0.48 0.49 0.52 0.38 0.43 0.49 0.52 0.59 0.62 0.70 0.59 0.51 0.61 0.56 0.63 0.70 0.78 0.88 1.02 1.04 1.01 1.02 1.09 1.15 1.16 1.23 1.35 1.47 1.58 1.63 1.63 1.65 1.62 1.64 1.63 1.59
0.31 0.39 0.53 0.56 0.81 0.89 0.72 0.56 0.59 0.66 0.93 0.63 0.56 0.61 0.64 0.65 0.89 0.96 0.63 0.55 0.74 0.64 0.62 0.70 0.73 0.79 0.97 1.06 1.04 1.05 1.09 1.17 1.17 1.25 1.37 1.50 1.59 1.70 1.68 1.74 1.78 1.75 1.67 1.60
0.59 0.61 0.62 0.62 0.84 0.96 0.67 0.53 0.63 1.11 1.27 0.77 0.68 0.69 0.74 0.77 0.80 0.75 0.62 0.65 0.72 0.64 0.61 0.59 0.67 0.89 0.99 1.02 1.09 1.15 1.14 1.22 1.26 1.39 1.47 1.59 1.67 1.72 1.71 1.78 1.84 1.82 1.77 1.78
0.84 0.83 0.78 0.83 1.08 1.18 0.71 0.63 0.90 1.06 0.81 0.76 0.74 0.67 0.71 0.72 0.65 0.56 0.55 0.58 0.60 0.64 0.64 0.73 0.87 0.99 1.03 1.07 1.24 1.37 1.42 1.36 1.47 1.56 1.54 1.63 1.76 1.62 1.62 1.83 1.90 1.91 1.94 1.92
0.93 0.95 0.98 1.04 1.15 0.99 0.88 0.93 1.00 0.85 0.85 0.78 0.70 0.67 0.62 0.66 0.65 0.59 0.57 0.53 0.58 0.70 0.70 0.79 0.93 0.98 1.02 1.09 1.26 1.51 1.54 1.48 1.50 1.59 1.63 1.64 1.71 1.84 1.91 1.96 2.00 1.96 1.90 1.90
1.01 0.89 1.05 1.19 1.16 1.05 1.03 1.02 1.01 0.92 0.90 0.81 0.72 0.73 0.67 0.71 0.76 0.70 0.64 0.65 0.61 0.65 0.70 0.76 0.91 0.96 1.09 1.19 1.35 1.62 1.67 1.63 1.65 1.70 1.78 1.79 1.77 1.83 2.00 2.16 2.16 2.07 1.91 1.93
1.11 1.09 1.24 1.43 1.36 1.18 1.04 0.90 0.85 0.80 0.76 0.73 0.75 0.76 0.76 0.80 0.83 0.78 0.81 0.83 0.75 0.71 0.72 0.81 0.99 1.14 1.19 1.25 1.34 1.50 1.68 1.81 1.88 1.89 1.87 1.89 1.92 1.96 2.05 2.05 2.01 1.99 1.92 1.84
1.07 1.21 1.48 1.63 1.33 1.17 1.10 0.91 0.89 0.79 0.72 0.72 0.72 0.71 0.80 0.82 0.82 0.80 0.81 0.85 0.81 0.85 0.96 0.98 1.02 1.16 1.25 1.30 1.39 1.51 1.73 2.01 2.21 2.17 2.07 2.05 2.04 2.06 2.03 2.04 1.87 1.71 1.63 1.57

GEFSCGP_prec_meanprecacc_258.txt.gz
Total_Precipitation_Accumulation
0.01 0.02 0.03 0.04 0.04 0.06 0.09 0.18 0.24 0.26 0.31 0.35 0.44 0.52 0.83 1.08 1.18 1.31 1.48 1.72 1.89 2.06 2.12 2.28 2.58 2.81 2.96 3.12 3.36 3.67 4.09 4.45 4.56 4.38 4.30 4.23 3.94 3.62 3.25 2.99 2.94 3.06 2.96 3.05
0.03 0.04 0.03 0.04 0.04 0.08 0.11 0.20 0.27 0.31 0.35 0.34 0.49 0.61 0.86 1.31 1.46 1.41 1.47 1.49 1.54 1.98 2.18 2.35 2.61 2.76 2.76 2.94 3.23 3.65 4.11 4.43 4.34 4.45 4.67 4.61 4.37 3.68 3.31 3.14 3.08 3.01 2.93 2.92
0.04 0.04 0.03 0.04 0.06 0.09 0.13 0.17 0.24 0.30 0.41 0.39 0.50 0.91 1.11 1.41 1.55 1.43 1.39 1.40 1.36 1.55 1.85 1.97 2.13 2.33 2.56 2.96 3.37 3.66 4.00 4.17 4.19 4.40 4.54 4.26 4.05 3.55 3.40 3.39 3.23 3.07 3.05 3.03
0.04 0.04 0.03 0.06 0.08 0.09 0.13 0.13 0.16 0.25 0.41 0.57 0.63 1.24 1.54 1.74 1.62 1.35 1.38 1.43 1.53 1.64 1.72 1.84 1.88 2.17 2.52 2.92 3.49 3.90 3.95 4.03 3.91 4.02 4.14 3.97 3.63 3.37 3.27 3.27 3.04 2.93 2.86 2.85
0.06 0.04 0.04 0.05 0.07 0.08 0.11 0.10 0.13 0.22 0.35 0.57 0.71 1.10 1.57 1.67 1.56 1.27 1.19 1.38 1.61 1.59 1.64 1.88 1.81 1.99 2.24 2.65 3.05 3.46 3.81 3.88 3.69 3.63 3.67 3.80 3.64 3.36 3.14 3.05 2.95 2.89 2.86 2.69
0.09 0.08 0.07 0.06 0.07 0.08 0.09 0.11 0.19 0.31 0.52 0.90 0.71 0.83 1.25 1.51 1.41 1.16 1.17 1.30 1.48 1.65 1.63 1.79 2.04 2.08 2.19 2.46 2.80 3.07 3.32 3.31 3.24 3.19 3.22 3.33 3.41 3.38 3.14 2.93 2.95 2.91 2.78 2.62
0.17 0.18 0.13 0.10 0.10 0.08 0.09 0.19 0.56 0.92 1.23 1.11 0.73 0.82 1.18 1.14 1.00 0.91 0.97 1.23 1.50 1.77 1.77 1.80 1.97 2.06 2.15 2.26 2.42 2.56 2.67 2.72 2.69 2.72 2.69 2.68 2.82 2.90 2.78 2.70 2.77 2.77 2.66 2.54
0.26 0.25 0.18 0.15 0.13 0.12 0.12 0.22 0.61 0.83 1.00 0.95 0.88 1.10 1.17 0.94 0.81 0.82 0.90 1.08 1.37 1.54 1.57 1.66 1.74 1.66 1.67 1.74 1.87 2.03 2.14 2.16 2.12 2.19 2.28 2.29 2.49 2.50 2.51 2.64 2.56 2.58 2.51 2.46
0.14 0.16 0.15 0.15 0.16 0.16 0.21 0.26 0.29 0.48 0.60 0.97 1.18 1.29 1.19 0.87 1.00 0.99 1.07 1.12 1.17 1.21 1.24 1.24 1.26 1.33 1.46 1.51 1.54 1.63 1.81 1.83 1.75 1.81 1.97 2.03 2.10 2.22 2.33 2.41 2.33 2.22 2.25 2.13
0.08 0.12 0.14 0.12 0.13 0.16 0.22 0.34 0.47 0.70 0.95 1.12 1.24 1.51 1.69 1.49 1.40 1.27 1.38 1.59 1.35 1.08 1.09 1.11 1.08 1.14 1.19 1.24 1.34 1.50 1.63 1.78 1.77 1.72 1.76 1.71 1.81 1.93 2.12 2.18 2.09 2.10 2.18 2.12
0.08 0.11 0.14 0.16 0.16 0.21 0.33 0.42 0.52 0.67 0.78 1.05 1.38 1.56 1.36 1.51 1.46 1.39 1.37 1.41 1.29 0.96 0.85 0.93 0.91 0.95 1.00 1.06 1.18 1.34 1.62 1.78 1.71 1.55 1.57 1.64 1.61 1.72 1.85 1.92 1.86 1.96 2.06 2.18
0.11 0.12 0.16 0.20 0.20 0.20 0.28 0.42 0.53 0.70 0.79 0.88 1.12 1.37 1.00 1.14 1.11 1.08 1.14 1.00 0.91 0.84 0.69 0.80 0.85 0.82 0.86 0.90 0.99 1.15 1.35 1.52 1.53 1.49 1.51 1.62 1.70 1.70 1.66 1.66 1.70 1.76 1.79 1.86
0.13 0.17 0.28 0.48 0.46 0.30 0.26 0.29 0.36 0.45 0.59 0.69 0.99 1.29 0.92 0.90 1.00 0.97 0.94 0.94 0.77 0.83 0.77 0.75 0.84 0.84 0.78 0.78 0.91 1.09 1.14 1.33 1.51 1.53 1.51 1.60 1.59 1.56 1.61 1.75 1.81 1.79 1.80 1.83
0.14 0.16 0.24 0.50 0.57 0.45 0.35 0.34 0.35 0.38 0.52 0.56 0.66 0.99 1.00 0.99 0.98 1.02 0.94 0.82 0.70 0.73 0.81 0.77 0.76 0.75 0.65 0.64 0.75 0.95 1.03 1.17 1.33 1.48 1.57 1.69 1.70 1.71 1.80 1.90 1.97 1.92 1.86 1.89
0.14 0.14 0.17 0.23 0.32 0.34 0.31 0.31 0.33 0.35 0.40 0.51 0.59 0.76 0.92 0.93 0.94 1.04 0.94 0.82 0.79 0.69 0.70 0.73 0.69 0.60 0.57 0.59 0.66 0.83 0.96 1.08 1.21 1.46 1.64 1.76 1.83 1.83 1.85 1.84 1.92 1.93 1.82 1.77
0.18 0.20 0.22 0.29 0.33 0.36 0.35 0.34 0.30 0.29 0.27 0.32 0.50 0.73 0.74 0.73 0.78 0.90 0.90 0.95 0.94 0.83 0.68 0.64 0.65 0.64 0.65 0.57 0.58 0.64 0.80 0.97 1.12 1.32 1.48 1.57 1.69 1.81 1.79 1.75 1.79 1.79 1.82 1.84
0.25 0.28 0.34 0.41 0.46 0.53 0.56 0.44 0.42 0.40 0.36 0.40 0.63 0.77 0.63 0.65 0.69 0.71 0.72 0.78 0.84 0.82 0.89 0.88 0.81 0.82 0.71 0.59 0.61 0.64 0.70 0.87 1.08 1.23 1.32 1.42 1.55 1.64 1.68 1.63 1.70 1.80 1.83 1.80
0.30 0.37 0.41 0.44 0.61 0.86 0.65 0.41 0.35 0.35 0.39 0.38 0.49 0.56 0.54 0.57 0.57 0.62 0.68 0.66 0.65 0.58 0.64 0.80 0.87 0.90 0.86 0.76 0.78 0.80 0.83 0.95 1.11 1.27 1.36 1.43 1.55 1.58 1.60 1.61 1.58 1.64 1.65 1.65
0.28 0.42 0.50 0.55 0.68 0.71 0.60 0.49 0.49 0.50 0.52 0.38 0.43 0.50 0.53 0.60 0.63 0.71 0.60 0.52 0.62 0.57 0.64 0.71 0.78 0.88 1.02 1.05 1.01 1.03 1.10 1.16 1.17 1.24 1.36 1.48 1.60 1.65 1.65 1.67 1.64 1.66 1.66 1.62
0.31 0.40 0.54 0.57 0.82 0.90 0.72 0.56 0.59 0.67 0.94 0.63 0.56 0.61 0.64 0.65 0.90 0.97 0.65 0.57 0.75 0.65 0.63 0.70 0.74 0.79 0.97 1.07 1.05 1.06 1.10 1.18 1.19 1.27 1.39 1.52 1.62 1.74 1.71 1.78 1.81 1.78 1.69 1.63
0.60 0.63 0.63 0.63 0.84 0.96 0.68 0.53 0.64 1.13 1.28 0.79 0.69 0.70 0.76 0.80 0.83 0.77 0.64 0.67 0.73 0.65 0.62 0.60 0.68 0.89 1.00 1.02 1.09 1.16 1.16 1.23 1.28 1.41 1.50 1.62 1.71 1.76 1.74 1.82 1.87 1.84 1.79 1.79
0.85 0.84 0.79 0.84 1.09 1.19 0.71 0.63 0.92 1.07 0.83 0.77 0.75 0.69 0.73 0.74 0.68 0.59 0.58 0.60 0.62 0.66 0.66 0.75 0.88 1.00 1.04 1.08 1.24 1.38 1.43 1.37 1.47 1.57 1.56 1.65 1.78 1.64 1.64 1.86 1.93 1.93 1.95 1.93
0.93 0.96 0.99 1.06 1.16 1.00 0.89 0.94 1.01 0.86 0.86 0.79 0.71 0.69 0.65 0.69 0.68 0.62 0.60 0.55 0.60 0.73 0.73 0.81 0.95 0.99 1.03 1.10 1.26 1.51 1.55 1.48 1.50 1.60 1.64 1.66 1.73 1.86 1.93 1.98 2.02 1.98 1.93 1.92
1.02 0.90 1.06 1.19 1.17 1.06 1.04 1.03 1.01 0.93 0.91 0.83 0.73 0.74 0.69 0.74 0.79 0.73 0.67 0.68 0.63 0.68 0.73 0.79 0.93 0.97 1.09 1.20 1.35 1.62 1.68 1.64 1.66 1.72 1.81 1.81 1.79 1.85 2.02 2.18 2.18 2.09 1.94 1.96
1.12 1.09 1.25 1.44 1.38 1.20 1.06 0.91 0.86 0.81 0.77 0.74 0.76 0.77 0.77 0.82 0.86 0.81 0.84 0.86 0.78 0.74 0.75 0.85 1.01 1.15 1.20 1.27 1.35 1.52 1.69 1.83 1.90 1.93 1.92 1.92 1.96 2.00 2.07 2.07 2.03 2.01 1.93 1.86
1.07 1.22 1.49 1.64 1.35 1.19 1.12 0.92 0.90 0.80 0.74 0.74 0.73 0.72 0.81 0.84 0.85 0.82 0.83 0.88 0.84 0.88 0.98 1.00 1.04 1.18 1.26 1.32 1.41 1.52 1.75 2.02 2.23 2.20 2.10 2.09 2.07 2.09 2.06 2.06 1.89 1.74 1.66 1.59

GEFSCGP_prec_meanprecacc_264.txt.gz
Total_Precipitation_Accumulation
0.01 0.03 0.04 0.04 0.05 0.06 0.09 0.19 0.24 0.26 0.32 0.35 0.44 0.52 0.84 1.08 1.19 1.32 1.50 1.74 1.91 2.07 2.13 2.29 2.60 2.83 2.99 3.13 3.37 3.70 4.13 4.49 4.60 4.43 4.35 4.28 4.00 3.66 3.28 3.01 2.96 3.10 3.00 3.09
0.03 0.04 0.04 0.05 0.05 0.08 0.11 0.20 0.27 0.31 0.35 0.34 0.49 0.62 0.86 1.31 1.47 1.43 1.49 1.52 1.56 1.99 2.18 2.37 2.63 2.77 2.77 2.96 3.26 3.68 4.15 4.48 4.38 4.49 4.70 4.65 4.42 3.72 3.34 3.17 3.11 3.05 2.95 2.94
0.04 0.04 0.03 0.05 0.07 0.10 0.14 0.18 0.24 0.30 0.41 0.39 0.51 0.94 1.12 1.41 1.56 1.44 1.40 1.42 1.37 1.56 1.85 1.98 2.14 2.34 2.58 2.99 3.44 3.76 4.06 4.22 4.23 4.43 4.57 4.29 4.08 3.57 3.43 3.42 3.27 3.10 3.07 3.05
0.04 0.05 0.04 0.06 0.08 0.10 0.14 0.13 0.16 0.25 0.41 0.57 0.64 1.27 1.56 1.74 1.62 1.35 1.38 1.44 1.54 1.65 1.73 1.85 1.88 2.17 2.54 2.97 3.55 3.96 4.00 4.07 3.93 4.05 4.16 4.00 3.66 3.41 3.31 3.30 3.07 2.95 2.88 2.86
0.07 0.06 0.06 0.06 0.07 0.08 0.11 0.10 0.13 0.22 0.35 0.57 0.71 1.10 1.58 1.67 1.57 1.28 1.19 1.39 1.61 1.60 1.65 1.88 1.82 2.00 2.25 2.67 3.07 3.48 3.86 3.92 3.72 3.64 3.69 3.83 3.67 3.39 3.17 3.08 2.99 2.93 2.90 2.71
0.09 0.08 0.07 0.07 0.07 0.08 0.09 0.11 0.20 0.32 0.53 0.92 0.72 0.84 1.26 1.51 1.41 1.17 1.18 1.31 1.48 1.65 1.64 1.80 2.04 2.08 2.20 2.47 2.80 3.08 3.34 3.33 3.26 3.21 3.25 3.37 3.45 3.42 3.18 2.97 3.00 2.96 2.82 2.66
0.18 0.19 0.14 0.11 0.10 0.08 0.09 0.20 0.59 0.98 1.28 1.12 0.74 0.83 1.19 1.14 1.00 0.91 0.99 1.26 1.51 1.77 1.77 1.80 1.97 2.07 2.15 2.26 2.42 2.57 2.68 2.73 2.70 2.73 2.70 2.71 2.86 2.95 2.83 2.74 2.80 2.81 2.69 2.58
0.26 0.26 0.19 0.16 0.13 0.12 0.12 0.24 0.63 0.87 1.02 0.95 0.89 1.11 1.18 0.94 0.81 0.82 0.90 1.09 1.37 1.55 1.58 1.67 1.75 1.67 1.67 1.75 1.87 2.03 2.15 2.17 2.12 2.20 2.30 2.32 2.53 2.54 2.56 2.69 2.60 2.62 2.54 2.50
0.14 0.17 0.16 0.16 0.17 0.16 0.21 0.26 0.29 0.48 0.61 0.98 1.18 1.30 1.19 0.87 1.00 0.99 1.07 1.12 1.17 1.21 1.25 1.25 1.27 1.34 1.47 1.51 1.55 1.63 1.82 1.84 1.76 1.82 1.98 2.05 2.12 2.25 2.37 2.47 2.38 2.26 2.28 2.16
0.08 0.13 0.16 0.13 0.13 0.16 0.22 0.34 0.47 0.70 0.95 1.13 1.25 1.51 1.69 1.49 1.40 1.27 1.38 1.59 1.35 1.08 1.09 1.11 1.09 1.15 1.20 1.25 1.34 1.50 1.64 1.78 1.78 1.73 1.78 1.73 1.83 1.95 2.14 2.22 2.13 2.15 2.22 2.17
0.08 0.12 0.17 0.18 0.16 0.21 0.33 0.42 0.52 0.67 0.78 1.06 1.40 1.58 1.37 1.51 1.46 1.39 1.38 1.41 1.29 0.96 0.85 0.93 0.92 0.95 1.00 1.07 1.19 1.35 1.63 1.79 1.72 1.56 1.59 1.65 1.63 1.73 1.88 1.95 1.90 2.00 2.10 2.23
0.11 0.12 0.18 0.22 0.21 0.20 0.29 0.42 0.53 0.70 0.79 0.88 1.13 1.38 1.00 1.15 1.11 1.08 1.14 1.00 0.91 0.84 0.69 0.80 0.86 0.83 0.86 0.91 1.02 1.18 1.37 1.53 1.54 1.50 1.52 1.63 1.72 1.72 1.70 1.70 1.74 1.79 1.83 1.90
0.13 0.17 0.30 0.50 0.46 0.30 0.27 0.29 0.36 0.45 0.60 0.69 1.00 1.30 0.92 0.90 1.00 0.99 0.94 0.94 0.77 0.83 0.77 0.76 0.87 0.90 0.85 0.84 0.96 1.13 1.16 1.34 1.52 1.54 1.52 1.62 1.61 1.58 1.64 1.78 1.84 1.82 1.83 1.86
0.14 0.16 0.25 0.51 0.58 0.45 0.35 0.34 0.35 0.38 0.53 0.57 0.66 1.00 1.01 0.99 0.99 1.03 0.95 0.82 0.71 0.74 0.82 0.78 0.79 0.78 0.71 0.72 0.82 1.00 1.07 1.19 1.35 1.49 1.58 1.71 1.72 1.73 1.82 1.92 1.99 1.95 1.88 1.91
0.14 0.15 0.18 0.25 0.32 0.34 0.31 0.31 0.33 0.36 0.40 0.53 0.61 0.80 0.94 0.93 0.95 1.06 0.96 0.83 0.80 0.70 0.72 0.75 0.71 0.63 0.60 0.63 0.73 0.90 1.02 1.11 1.22 1.47 1.65 1.77 1.84 1.85 1.86 1.86 1.94 1.94 1.84 1.80
0.18 0.20 0.25 0.33 0.35 0.37 0.36 0.35 0.31 0.29 0.27 0.33 0.51 0.75 0.75 0.74 0.79 0.91 0.92 0.98 0.97 0.86 0.70 0.65 0.67 0.66 0.67 0.60 0.62 0.68 0.83 0.99 1.13 1.34 1.49 1.58 1.70 1.83 1.81 1.76 1.80 1.80 1.84 1.88
0.25 0.29 0.39 0.45 0.48 0.54 0.56 0.44 0.42 0.41 0.36 0.40 0.63 0.77 0.64 0.65 0.70 0.72 0.74 0.80 0.86 0.85 0.91 0.90 0.83 0.83 0.72 0.62 0.64 0.66 0.72 0.89 1.10 1.25 1.32 1.43 1.57 1.66 1.69 1.65 1.72 1.82 1.85 1.83
0.30 0.38 0.43 0.47 0.64 0.88 0.66 0.41 0.36 0.35 0.39 0.38 0.49 0.57 0.54 0.58 0.59 0.65 0.76 0.72 0.69 0.61 0.66 0.82 0.89 0.91 0.88 0.77 0.79 0.82 0.85 0.95 1.12 1.28 1.37 1.43 1.56 1.59 1.62 1.62 1.59 1.66 1.68 1.68
0.28 0.43 0.51 0.57 0.71 0.74 0.62 0.50 0.49 0.50 0.53 0.39 0.44 0.50 0.53 0.60 0.65 0.76 0.66 0.58 0.67 0.60 0.66 0.73 0.80 0.89 1.03 1.06 1.02 1.03 1.11 1.17 1.17 1.26 1.39 1.50 1.61 1.67 1.67 1.70 1.66 1.69 1.69 1.66
0.31 0.42 0.56 0.59 0.84 0.94 0.77 0.57 0.60 0.68 0.96 0.64 0.57 0.63 0.66 0.68 0.93 1.01 0.68 0.60 0.79 0.67 0.65 0.71 0.74 0.80 0.98 1.07 1.06 1.06 1.11 1.20 1.20 1.28 1.41 1.53 1.64 1.77 1.74 1.81 1.85 1.81 1.73 1.67
0.61 0.64 0.65 0.66 0.88 1.00 0.70 0.54 0.65 1.16 1.32 0.81 0.72 0.73 0.80 0.85 0.87 0.82 0.68 0.71 0.80 0.69 0.64 0.61 0.68 0.90 1.00 1.03 1.10 1.16 1.16 1.24 1.29 1.43 1.52 1.63 1.72 1.79 1.78 1.86 1.91 1.88 1.83 1.84
0.87 0.86 0.82 0.89 1.15 1.23 0.73 0.65 0.95 1.11 0.85 0.80 0.79 0.73 0.77 0.79 0.72 0.62 0.60 0.63 0.65 0.69 0.70 0.77 0.89 1.00 1.04 1.08 1.25 1.39 1.43 1.37 1.48 1.59 1.58 1.67 1.80 1.66 1.66 1.90 1.98 1.98 2.00 1.97
0.94 0.98 1.03 1.10 1.21 1.04 0.90 0.97 1.04 0.90 0.92 0.84 0.74 0.73 0.68 0.71 0.71 0.65 0.62 0.58 0.64 0.77 0.78 0.85 0.96 0.99 1.03 1.10 1.27 1.52 1.55 1.49 1.51 1.62 1.66 1.67 1.74 1.88 1.95 2.01 2.06 2.03 1.97 1.96
1.04 0.91 1.08 1.23 1.21 1.09 1.06 1.07 1.06 0.97 0.95 0.87 0.75 0.75 0.70 0.76 0.86 0.78 0.70 0.71 0.67 0.72 0.76 0.80 0.94 0.97 1.10 1.21 1.36 1.63 1.68 1.64 1.67 1.74 1.82 1.83 1.81 1.87 2.04 2.22 2.22 2.14 1.99 2.01
1.17 1.12 1.28 1.48 1.42 1.22 1.08 0.94 0.91 0.87 0.82 0.78 0.79 0.78 0.78 0.83 0.91 0.88 0.92 0.91 0.82 0.78 0.78 0.87 1.03 1.16 1.22 1.28 1.36 1.53 1.70 1.84 1.92 1.94 1.94 1.95 1.98 2.02 2.10 2.11 2.07 2.06 2.00 1.93
1.13 1.29 1.55 1.70 1.39 1.22 1.14 0.95 0.93 0.83 0.76 0.76 0.77 0.75 0.82 0.85 0.87 0.86 0.89 0.94 0.90 0.93 1.02 1.03 1.07 1.21 1.29 1.34 1.42 1.54 1.76 2.04 2.24 2.22 2.12 2.11 2.09 2.10 2.07 2.08 1.92 1.78 1.70 1.64